Time,TemperatureF,DewpointF,PressureIn,WindDirection,WindDirectionDegrees,WindSpeedMPH,WindSpeedGustMPH,Humidity,HourlyPrecipIn,Conditions,Clouds,dailyrainin,SoftwareType,DateUTC
2013-01-23 00:00:00,30.3,16.9,30.20,NW,315,0.0,0.0,57,0.00,,---,0.00,VWS V14.01,2013-01-23 05:00:00,
2013-01-23 00:01:00,30.3,16.1,30.20,NW,315,0.0,0.0,55,0.00,,---,0.00,VWS V14.01,2013-01-23 05:01:00,
2013-01-23 00:03:00,30.3,16.9,30.20,NW,315,0.0,0.0,57,0.00,,---,0.00,VWS V14.01,2013-01-23 05:03:00,
2013-01-23 00:08:00,30.1,17.5,30.20,NW,315,0.0,0.0,59,0.00,,---,0.00,VWS V14.01,2013-01-23 05:08:00,
2013-01-23 00:13:00,30.1,17.5,30.20,NW,315,0.0,0.0,59,0.00,,---,0.00,VWS V14.01,2013-01-23 05:13:00,
2013-01-23 00:18:00,30.0,18.2,30.21,NW,315,0.0,0.0,61,0.00,,---,0.00,VWS V14.01,2013-01-23 05:18:00,
2013-01-23 00:23:00,30.0,17.8,30.21,NW,315,0.0,0.0,60,0.00,,---,0.00,VWS V14.01,2013-01-23 05:23:00,
2013-01-23 00:28:00,30.0,17.8,30.21,NW,315,0.0,0.0,60,0.00,,---,0.00,VWS V14.01,2013-01-23 05:28:00,
2013-01-23 00:33:00,29.8,16.4,30.21,NNE,28,0.0,0.0,57,0.00,,---,0.00,VWS V14.01,2013-01-23 05:33:00,
2013-01-23 00:38:00,29.8,16.4,30.21,NNE,23,0.0,2.0,57,0.00,,---,0.00,VWS V14.01,2013-01-23 05:38:00,
2013-01-23 00:43:00,29.8,15.2,30.21,NNE,24,1.0,2.0,54,0.00,,---,0.00,VWS V14.01,2013-01-23 05:43:00,
2013-01-23 00:48:00,29.8,13.9,30.21,NNE,31,0.0,3.0,51,0.00,,---,0.00,VWS V14.01,2013-01-23 05:48:00,
2013-01-23 00:53:00,30.0,14.5,30.21,NE,52,3.0,3.0,52,0.00,,---,0.00,VWS V14.01,2013-01-23 05:53:00,
2013-01-23 00:58:00,30.0,14.1,30.21,NNE,32,0.0,5.0,51,0.00,,---,0.00,VWS V14.01,2013-01-23 05:58:00,
2013-01-23 01:03:00,30.0,13.6,30.22,ENE,62,2.0,5.0,50,0.00,,---,0.00,VWS V14.01,2013-01-23 06:03:00,
2013-01-23 01:08:00,30.0,13.6,30.22,NNE,13,3.0,7.0,50,0.00,,---,0.00,VWS V14.01,2013-01-23 06:08:00,
2013-01-23 01:13:00,29.8,13.0,30.22,ENE,68,1.0,2.0,49,0.00,,---,0.00,VWS V14.01,2013-01-23 06:13:00,
2013-01-23 01:18:00,29.8,12.5,30.21,ENE,59,0.0,6.0,48,0.00,,---,0.00,VWS V14.01,2013-01-23 06:18:00,
2013-01-23 01:23:00,29.8,11.6,30.21,NE,44,0.0,0.0,46,0.00,,---,0.00,VWS V14.01,2013-01-23 06:23:00,
2013-01-23 01:28:00,29.7,11.5,30.21,ENE,78,2.0,7.0,46,0.00,,---,0.00,VWS V14.01,2013-01-23 06:28:00,
2013-01-23 01:33:00,29.7,11.5,30.22,NE,56,1.0,3.0,46,0.00,,---,0.00,VWS V14.01,2013-01-23 06:33:00,
2013-01-23 01:38:00,29.7,11.0,30.22,NE,52,4.0,6.0,45,0.00,,---,0.00,VWS V14.01,2013-01-23 06:38:00,
2013-01-23 01:43:00,29.7,10.5,30.22,NE,41,0.0,2.0,44,0.00,,---,0.00,VWS V14.01,2013-01-23 06:43:00,
2013-01-23 01:48:00,29.7,10.5,30.23,NE,45,3.0,3.0,44,0.00,,---,0.00,VWS V14.01,2013-01-23 06:48:00,
2013-01-23 01:53:00,29.7,10.0,30.23,ENE,58,0.0,3.0,43,0.00,,---,0.00,VWS V14.01,2013-01-23 06:53:00,
2013-01-23 01:58:00,29.5,9.8,30.23,ENE,58,1.0,3.0,43,0.00,,---,0.00,VWS V14.01,2013-01-23 06:58:00,
2013-01-23 02:03:00,29.5,9.8,30.23,ENE,58,3.0,3.0,43,0.00,,---,0.00,VWS V14.01,2013-01-23 07:03:00,
2013-01-23 02:08:00,29.4,9.7,30.23,NNE,27,0.0,5.0,43,0.00,,---,0.00,VWS V14.01,2013-01-23 07:08:00,
2013-01-23 02:13:00,29.4,9.7,30.23,NE,37,1.0,6.0,43,0.00,,---,0.00,VWS V14.01,2013-01-23 07:13:00,
2013-01-23 02:18:00,29.3,9.6,30.23,NE,40,0.0,6.0,43,0.00,,---,0.00,VWS V14.01,2013-01-23 07:18:00,
2013-01-23 02:23:00,29.3,9.6,30.23,NNE,24,0.0,7.0,43,0.00,,---,0.00,VWS V14.01,2013-01-23 07:23:00,
2013-01-23 02:28:00,29.1,8.9,30.23,ENE,62,5.0,7.0,42,0.00,,---,0.00,VWS V14.01,2013-01-23 07:28:00,
2013-01-23 02:33:00,29.1,8.9,30.24,NE,35,2.0,6.0,42,0.00,,---,0.00,VWS V14.01,2013-01-23 07:33:00,
2013-01-23 02:38:00,29.0,8.8,30.24,NNE,27,1.0,6.0,42,0.00,,---,0.00,VWS V14.01,2013-01-23 07:38:00,
2013-01-23 02:43:00,29.0,9.3,30.24,ENE,58,0.0,0.0,43,0.00,,---,0.00,VWS V14.01,2013-01-23 07:43:00,
2013-01-23 02:48:00,29.0,8.8,30.24,NE,37,0.0,3.0,42,0.00,,---,0.00,VWS V14.01,2013-01-23 07:48:00,
2013-01-23 02:53:00,28.8,8.6,30.24,NE,51,0.0,0.0,42,0.00,,---,0.00,VWS V14.01,2013-01-23 07:53:00,
2013-01-23 02:58:00,28.8,9.1,30.24,NE,51,0.0,2.0,43,0.00,,---,0.00,VWS V14.01,2013-01-23 07:58:00,
2013-01-23 03:03:00,28.7,8.5,30.24,North,11,0.0,0.0,42,0.00,,---,0.00,VWS V14.01,2013-01-23 08:03:00,
2013-01-23 03:08:00,28.7,8.5,30.24,ENE,66,0.0,2.0,42,0.00,,---,0.00,VWS V14.01,2013-01-23 08:08:00,
2013-01-23 03:13:00,28.5,8.3,30.24,ENE,65,0.0,0.0,42,0.00,,---,0.00,VWS V14.01,2013-01-23 08:13:00,
2013-01-23 03:18:00,28.5,8.3,30.25,ENE,65,0.0,0.0,42,0.00,,---,0.00,VWS V14.01,2013-01-23 08:18:00,
2013-01-23 03:23:00,28.5,8.9,30.25,ENE,65,0.0,0.0,43,0.00,,---,0.00,VWS V14.01,2013-01-23 08:23:00,
2013-01-23 03:28:00,28.4,8.2,30.25,ENE,65,0.0,0.0,42,0.00,,---,0.00,VWS V14.01,2013-01-23 08:28:00,
2013-01-23 03:33:00,28.4,9.8,30.25,ENE,65,0.0,0.0,45,0.00,,---,0.00,VWS V14.01,2013-01-23 08:33:00,
2013-01-23 03:38:00,28.4,9.8,30.25,ENE,65,0.0,0.0,45,0.00,,---,0.00,VWS V14.01,2013-01-23 08:38:00,
2013-01-23 03:43:00,28.4,8.8,30.25,ENE,65,0.0,0.0,43,0.00,,---,0.00,VWS V14.01,2013-01-23 08:43:00,
2013-01-23 03:48:00,28.4,8.8,30.24,ENE,68,0.0,1.0,43,0.00,,---,0.00,VWS V14.01,2013-01-23 08:48:00,
2013-01-23 03:53:00,28.2,9.1,30.24,North,11,0.0,1.0,44,0.00,,---,0.00,VWS V14.01,2013-01-23 08:53:00,
2013-01-23 03:58:00,28.1,9.5,30.24,North,11,0.0,1.0,45,0.00,,---,0.00,VWS V14.01,2013-01-23 08:58:00,
2013-01-23 04:03:00,27.9,9.8,30.24,North,11,0.0,0.0,46,0.00,,---,0.00,VWS V14.01,2013-01-23 09:03:00,
2013-01-23 04:08:00,27.9,9.3,30.24,North,11,0.0,0.0,45,0.00,,---,0.00,VWS V14.01,2013-01-23 09:08:00,
2013-01-23 04:13:00,27.8,9.7,30.24,North,11,0.0,0.0,46,0.00,,---,0.00,VWS V14.01,2013-01-23 09:13:00,
2013-01-23 04:18:00,27.8,9.7,30.25,ENE,78,0.0,2.0,46,0.00,,---,0.00,VWS V14.01,2013-01-23 09:18:00,
2013-01-23 04:23:00,27.6,9.5,30.25,ENE,75,1.0,1.0,46,0.00,,---,0.00,VWS V14.01,2013-01-23 09:23:00,
2013-01-23 04:28:00,27.5,9.4,30.25,ENE,75,0.0,1.0,46,0.00,,---,0.00,VWS V14.01,2013-01-23 09:28:00,
2013-01-23 04:33:00,27.3,9.7,30.25,ENE,75,0.0,0.0,47,0.00,,---,0.00,VWS V14.01,2013-01-23 09:33:00,
2013-01-23 04:38:00,27.3,10.2,30.25,ENE,75,0.0,0.0,48,0.00,,---,0.00,VWS V14.01,2013-01-23 09:38:00,
2013-01-23 04:43:00,27.2,9.2,30.25,NNE,23,0.0,0.0,46,0.00,,---,0.00,VWS V14.01,2013-01-23 09:43:00,
2013-01-23 04:48:00,27.2,9.6,30.26,NNE,23,0.0,0.0,47,0.00,,---,0.00,VWS V14.01,2013-01-23 09:48:00,
2013-01-23 04:53:00,27.2,9.2,30.26,NNE,23,0.0,0.0,46,0.00,,---,0.00,VWS V14.01,2013-01-23 09:53:00,
2013-01-23 04:58:00,27.0,9.5,30.26,NNE,23,0.0,0.0,47,0.00,,---,0.00,VWS V14.01,2013-01-23 09:58:00,
2013-01-23 05:03:00,27.0,10.4,30.25,NNE,23,0.0,0.0,49,0.00,,---,0.00,VWS V14.01,2013-01-23 10:03:00,
2013-01-23 05:08:00,26.9,10.8,30.25,NNE,23,0.0,0.0,50,0.00,,---,0.00,VWS V14.01,2013-01-23 10:08:00,
2013-01-23 05:13:00,26.7,10.6,30.25,NE,52,0.0,0.0,50,0.00,,---,0.00,VWS V14.01,2013-01-23 10:13:00,
2013-01-23 05:18:00,26.6,10.0,30.26,NE,52,0.0,0.0,49,0.00,,---,0.00,VWS V14.01,2013-01-23 10:18:00,
2013-01-23 05:23:00,26.6,10.0,30.26,NE,40,0.0,0.0,49,0.00,,---,0.00,VWS V14.01,2013-01-23 10:23:00,
2013-01-23 05:28:00,26.4,9.8,30.26,ENE,66,0.0,2.0,49,0.00,,---,0.00,VWS V14.01,2013-01-23 10:28:00,
2013-01-23 05:33:00,26.3,9.8,30.26,NNE,32,0.0,0.0,49,0.00,,---,0.00,VWS V14.01,2013-01-23 10:33:00,
2013-01-23 05:38:00,26.3,9.8,30.26,NNE,32,1.0,1.0,49,0.00,,---,0.00,VWS V14.01,2013-01-23 10:38:00,
2013-01-23 05:43:00,26.1,10.0,30.26,ENE,62,0.0,0.0,50,0.00,,---,0.00,VWS V14.01,2013-01-23 10:43:00,
2013-01-23 05:48:00,26.1,9.6,30.26,NNE,20,0.0,1.0,49,0.00,,---,0.00,VWS V14.01,2013-01-23 10:48:00,
2013-01-23 05:53:00,26.1,9.1,30.26,NNE,20,0.0,0.0,48,0.00,,---,0.00,VWS V14.01,2013-01-23 10:53:00,
2013-01-23 05:58:00,26.1,9.6,30.26,NNE,20,0.0,0.0,49,0.00,,---,0.00,VWS V14.01,2013-01-23 10:58:00,
2013-01-23 06:03:00,26.1,9.6,30.27,NNE,20,0.0,0.0,49,0.00,,---,0.00,VWS V14.01,2013-01-23 11:03:00,
2013-01-23 06:08:00,26.1,10.0,30.27,NE,55,0.0,0.0,50,0.00,,---,0.00,VWS V14.01,2013-01-23 11:08:00,
2013-01-23 06:13:00,26.1,9.6,30.27,NE,55,0.0,0.0,49,0.00,,---,0.00,VWS V14.01,2013-01-23 11:13:00,
2013-01-23 06:18:00,26.1,9.6,30.28,NE,34,0.0,3.0,49,0.00,,---,0.00,VWS V14.01,2013-01-23 11:18:00,
2013-01-23 06:23:00,26.1,10.0,30.28,NE,34,0.0,0.0,50,0.00,,---,0.00,VWS V14.01,2013-01-23 11:23:00,
2013-01-23 06:28:00,26.1,10.0,30.28,NE,34,0.0,0.0,50,0.00,,---,0.00,VWS V14.01,2013-01-23 11:28:00,
2013-01-23 06:33:00,26.0,9.9,30.28,NE,34,0.0,0.0,50,0.00,,---,0.00,VWS V14.01,2013-01-23 11:33:00,
2013-01-23 06:38:00,26.0,9.9,30.28,NE,34,0.0,0.0,50,0.00,,---,0.00,VWS V14.01,2013-01-23 11:38:00,
2013-01-23 06:43:00,26.0,10.4,30.28,NE,34,0.0,0.0,51,0.00,,---,0.00,VWS V14.01,2013-01-23 11:43:00,
2013-01-23 06:48:00,25.8,9.7,30.28,NE,34,0.0,0.0,50,0.00,,---,0.00,VWS V14.01,2013-01-23 11:48:00,
2013-01-23 06:53:00,25.7,9.6,30.28,NE,34,0.0,0.0,50,0.00,,---,0.00,VWS V14.01,2013-01-23 11:53:00,
2013-01-23 06:58:00,25.6,9.6,30.28,NE,34,0.0,0.0,50,0.00,,---,0.00,VWS V14.01,2013-01-23 11:58:00,
2013-01-23 07:03:00,25.6,10.4,30.29,NE,37,0.0,0.0,52,0.00,,---,0.00,VWS V14.01,2013-01-23 12:03:00,
2013-01-23 07:08:00,25.6,10.9,30.29,NE,37,0.0,0.0,53,0.00,,---,0.00,VWS V14.01,2013-01-23 12:08:00,
2013-01-23 07:13:00,25.6,10.9,30.29,NE,37,0.0,0.0,53,0.00,,---,0.00,VWS V14.01,2013-01-23 12:13:00,
2013-01-23 07:18:00,25.6,10.4,30.29,ENE,62,1.0,2.0,52,0.00,,---,0.00,VWS V14.01,2013-01-23 12:18:00,
2013-01-23 07:23:00,25.6,10.9,30.29,ENE,65,0.0,0.0,53,0.00,,---,0.00,VWS V14.01,2013-01-23 12:23:00,
2013-01-23 07:28:00,25.4,10.2,30.29,ENE,65,0.0,0.0,52,0.00,,---,0.00,VWS V14.01,2013-01-23 12:28:00,
2013-01-23 07:33:00,25.4,10.2,30.29,NE,37,0.0,2.0,52,0.00,,---,0.00,VWS V14.01,2013-01-23 12:33:00,
2013-01-23 07:38:00,25.4,9.8,30.29,ENE,61,0.0,2.0,51,0.00,,---,0.00,VWS V14.01,2013-01-23 12:38:00,
2013-01-23 07:43:00,25.4,9.4,30.29,ENE,73,0.0,0.0,50,0.00,,---,0.00,VWS V14.01,2013-01-23 12:43:00,
2013-01-23 07:48:00,25.4,9.8,30.29,NE,49,0.0,2.0,51,0.00,,---,0.00,VWS V14.01,2013-01-23 12:48:00,
2013-01-23 07:53:00,25.4,8.9,30.29,NE,54,0.0,0.0,49,0.00,,---,0.00,VWS V14.01,2013-01-23 12:53:00,
2013-01-23 07:58:00,25.4,8.9,30.29,NE,48,2.0,2.0,49,0.00,,---,0.00,VWS V14.01,2013-01-23 12:58:00,
2013-01-23 08:03:00,25.6,8.6,30.30,NE,45,0.0,0.0,48,0.00,,---,0.00,VWS V14.01,2013-01-23 13:03:00,
2013-01-23 08:08:00,25.6,8.2,30.30,ENE,75,2.0,5.0,47,0.00,,---,0.00,VWS V14.01,2013-01-23 13:08:00,
2013-01-23 08:13:00,25.8,7.4,30.30,NE,48,0.0,0.0,45,0.00,,---,0.00,VWS V14.01,2013-01-23 13:13:00,
2013-01-23 08:18:00,26.0,8.1,30.30,NE,48,0.0,0.0,46,0.00,,---,0.00,VWS V14.01,2013-01-23 13:18:00,
2013-01-23 08:23:00,26.4,6.9,30.30,NE,54,2.0,6.0,43,0.00,,---,0.00,VWS V14.01,2013-01-23 13:23:00,
2013-01-23 08:28:00,26.7,6.7,30.30,East,80,0.0,6.0,42,0.00,,---,0.00,VWS V14.01,2013-01-23 13:28:00,
2013-01-23 08:33:00,27.0,7.5,30.31,East,79,1.0,3.0,43,0.00,,---,0.00,VWS V14.01,2013-01-23 13:33:00,
2013-01-23 08:38:00,27.3,6.2,30.31,East,93,0.0,6.0,40,0.00,,---,0.00,VWS V14.01,2013-01-23 13:38:00,
2013-01-23 08:43:00,27.6,7.5,30.31,ENE,61,0.0,1.0,42,0.00,,---,0.00,VWS V14.01,2013-01-23 13:43:00,
2013-01-23 08:48:00,28.1,7.4,30.32,ESE,114,0.0,6.0,41,0.00,,---,0.00,VWS V14.01,2013-01-23 13:48:00,
2013-01-23 08:53:00,28.4,6.6,30.32,ENE,73,0.0,2.0,39,0.00,,---,0.00,VWS V14.01,2013-01-23 13:53:00,
2013-01-23 08:58:00,28.7,6.3,30.32,NE,38,1.0,7.0,38,0.00,,---,0.00,VWS V14.01,2013-01-23 13:58:00,
2013-01-23 09:03:00,29.1,6.7,30.32,NE,52,5.0,7.0,38,0.00,,---,0.00,VWS V14.01,2013-01-23 14:03:00,
2013-01-23 09:08:00,29.5,6.4,30.32,ENE,72,1.0,7.0,37,0.00,,---,0.00,VWS V14.01,2013-01-23 14:08:00,
2013-01-23 09:13:00,29.8,5.5,30.32,NE,49,8.0,8.0,35,0.00,,---,0.00,VWS V14.01,2013-01-23 14:13:00,
2013-01-23 09:18:00,30.1,5.8,30.32,NE,49,2.0,8.0,35,0.00,,---,0.00,VWS V14.01,2013-01-23 14:18:00,
2013-01-23 09:23:00,30.1,5.8,30.32,East,96,1.0,1.0,35,0.00,,---,0.00,VWS V14.01,2013-01-23 14:23:00,
2013-01-23 09:28:00,30.3,6.6,30.32,ENE,73,0.0,5.0,36,0.00,,---,0.00,VWS V14.01,2013-01-23 14:28:00,
2013-01-23 09:33:00,30.4,4.8,30.33,SSE,150,4.0,7.0,33,0.00,,---,0.00,VWS V14.01,2013-01-23 14:33:00,
2013-01-23 09:38:00,30.6,5.6,30.33,SE,133,5.0,7.0,34,0.00,,---,0.00,VWS V14.01,2013-01-23 14:38:00,
2013-01-23 09:43:00,30.9,6.5,30.33,ENE,68,0.0,5.0,35,0.00,,---,0.00,VWS V14.01,2013-01-23 14:43:00,
2013-01-23 09:48:00,31.2,5.5,30.33,SSE,164,6.0,8.0,33,0.00,,---,0.00,VWS V14.01,2013-01-23 14:48:00,
2013-01-23 09:53:00,31.5,4.4,30.33,ESE,116,0.0,2.0,31,0.00,,---,0.00,VWS V14.01,2013-01-23 14:53:00,
2013-01-23 09:58:00,31.6,5.8,30.33,ESE,121,6.0,7.0,33,0.00,,---,0.00,VWS V14.01,2013-01-23 14:58:00,
2013-01-23 10:03:00,31.9,4.7,30.34,ESE,117,0.0,3.0,31,0.00,,---,0.00,VWS V14.01,2013-01-23 15:03:00,
2013-01-23 10:08:00,32.1,4.2,30.34,NE,47,2.0,5.0,30,0.00,,---,0.00,VWS V14.01,2013-01-23 15:08:00,
2013-01-23 10:13:00,32.2,3.5,30.34,NE,51,7.0,7.0,29,0.00,,---,0.00,VWS V14.01,2013-01-23 15:13:00,
2013-01-23 10:18:00,32.2,4.3,30.34,SSE,165,3.0,7.0,30,0.00,,---,0.00,VWS V14.01,2013-01-23 15:18:00,
2013-01-23 10:23:00,32.5,3.8,30.34,NNE,25,0.0,2.0,29,0.00,,---,0.00,VWS V14.01,2013-01-23 15:23:00,
2013-01-23 10:28:00,32.7,6.8,30.34,NNE,20,0.0,5.0,33,0.00,,---,0.00,VWS V14.01,2013-01-23 15:28:00,
2013-01-23 10:33:00,32.9,4.1,30.33,ESE,119,4.0,4.0,29,0.00,,---,0.00,VWS V14.01,2013-01-23 15:33:00,
2013-01-23 10:38:00,33.1,4.3,30.33,ESE,114,0.0,4.0,29,0.00,,---,0.00,VWS V14.01,2013-01-23 15:38:00,
2013-01-23 10:43:00,33.2,3.6,30.33,NE,40,0.0,2.0,28,0.00,,---,0.00,VWS V14.01,2013-01-23 15:43:00,
2013-01-23 10:48:00,33.4,3.0,30.33,East,86,2.0,3.0,27,0.00,,---,0.00,VWS V14.01,2013-01-23 15:48:00,
2013-01-23 10:53:00,33.7,4.8,30.33,SE,127,3.0,3.0,29,0.00,,---,0.00,VWS V14.01,2013-01-23 15:53:00,
2013-01-23 10:58:00,34.0,5.1,30.33,East,92,0.0,6.0,29,0.00,,---,0.00,VWS V14.01,2013-01-23 15:58:00,
2013-01-23 11:03:00,34.1,5.9,30.32,East,97,1.0,3.0,30,0.00,,---,0.00,VWS V14.01,2013-01-23 16:03:00,
2013-01-23 11:08:00,34.4,4.7,30.32,SE,130,1.0,5.0,28,0.00,,---,0.00,VWS V14.01,2013-01-23 16:08:00,
2013-01-23 11:13:00,34.7,4.2,30.32,ENE,58,3.0,3.0,27,0.00,,---,0.00,VWS V14.01,2013-01-23 16:13:00,
2013-01-23 11:18:00,34.9,5.1,30.32,SE,140,0.0,6.0,28,0.00,,---,0.00,VWS V14.01,2013-01-23 16:18:00,
2013-01-23 11:23:00,35.2,5.4,30.32,South,191,0.0,2.0,28,0.00,,---,0.00,VWS V14.01,2013-01-23 16:23:00,
2013-01-23 11:28:00,35.5,4.8,30.32,ESE,110,0.0,6.0,27,0.00,,---,0.00,VWS V14.01,2013-01-23 16:28:00,
2013-01-23 11:33:00,35.6,5.7,30.31,ESE,110,0.0,1.0,28,0.00,,---,0.00,VWS V14.01,2013-01-23 16:33:00,
2013-01-23 11:38:00,35.8,5.1,30.31,ESE,119,5.0,5.0,27,0.00,,---,0.00,VWS V14.01,2013-01-23 16:38:00,
2013-01-23 11:43:00,35.9,5.2,30.31,ESE,116,0.0,0.0,27,0.00,,---,0.00,VWS V14.01,2013-01-23 16:43:00,
2013-01-23 11:48:00,36.0,6.8,30.30,NE,37,2.0,3.0,29,0.00,,---,0.00,VWS V14.01,2013-01-23 16:48:00,
2013-01-23 11:53:00,36.2,7.0,30.30,NE,38,0.0,0.0,29,0.00,,---,0.00,VWS V14.01,2013-01-23 16:53:00,
2013-01-23 11:58:00,36.5,6.5,30.30,NNE,31,0.0,2.0,28,0.00,,---,0.00,VWS V14.01,2013-01-23 16:58:00,
2013-01-23 12:03:00,36.6,5.8,30.29,NW,309,0.0,0.0,27,0.00,,---,0.00,VWS V14.01,2013-01-23 17:03:00,
2013-01-23 12:08:00,36.9,6.8,30.29,NNE,28,0.0,3.0,28,0.00,,---,0.00,VWS V14.01,2013-01-23 17:08:00,
2013-01-23 12:13:00,37.2,6.3,30.29,South,178,0.0,0.0,27,0.00,,---,0.00,VWS V14.01,2013-01-23 17:13:00,
2013-01-23 12:18:00,37.8,6.8,30.28,South,176,0.0,0.0,27,0.00,,---,0.00,VWS V14.01,2013-01-23 17:18:00,
2013-01-23 12:23:00,38.0,7.0,30.28,South,176,1.0,3.0,27,0.00,,---,0.00,VWS V14.01,2013-01-23 17:23:00,
2013-01-23 12:28:00,38.3,7.3,30.28,West,278,0.0,3.0,27,0.00,,---,0.00,VWS V14.01,2013-01-23 17:28:00,
2013-01-23 12:33:00,38.3,8.1,30.27,NW,306,1.0,3.0,28,0.00,,---,0.00,VWS V14.01,2013-01-23 17:33:00,
2013-01-23 12:38:00,38.3,6.4,30.27,NNW,344,0.0,3.0,26,0.00,,---,0.00,VWS V14.01,2013-01-23 17:38:00,
2013-01-23 12:43:00,38.3,6.4,30.27,WNW,284,0.0,0.0,26,0.00,,---,0.00,VWS V14.01,2013-01-23 17:43:00,
2013-01-23 12:48:00,38.3,7.3,30.26,SSE,147,0.0,2.0,27,0.00,,---,0.00,VWS V14.01,2013-01-23 17:48:00,
2013-01-23 12:53:00,38.5,8.2,30.26,NW,323,0.0,2.0,28,0.00,,---,0.00,VWS V14.01,2013-01-23 17:53:00,
2013-01-23 12:58:00,38.8,7.7,30.26,WNW,296,0.0,3.0,27,0.00,,---,0.00,VWS V14.01,2013-01-23 17:58:00,
2013-01-23 13:03:00,38.9,8.6,30.25,WNW,285,2.0,2.0,28,0.00,,---,0.00,VWS V14.01,2013-01-23 18:03:00,
2013-01-23 13:08:00,39.5,8.3,30.25,NW,304,0.0,3.0,27,0.00,,---,0.00,VWS V14.01,2013-01-23 18:08:00,
2013-01-23 13:13:00,39.6,8.4,30.25,NW,304,0.0,0.0,27,0.00,,---,0.00,VWS V14.01,2013-01-23 18:13:00,
2013-01-23 13:18:00,40.2,9.7,30.24,West,268,0.0,0.0,28,0.00,,---,0.00,VWS V14.01,2013-01-23 18:18:00,
2013-01-23 13:23:00,40.5,10.0,30.24,NW,305,0.0,2.0,28,0.00,,---,0.00,VWS V14.01,2013-01-23 18:23:00,
2013-01-23 13:28:00,40.8,11.0,30.24,WNW,299,0.0,3.0,29,0.00,,---,0.00,VWS V14.01,2013-01-23 18:28:00,
2013-01-23 13:33:00,41.1,11.3,30.23,NW,312,1.0,1.0,29,0.00,,---,0.00,VWS V14.01,2013-01-23 18:33:00,
2013-01-23 13:38:00,41.2,10.6,30.23,NW,318,0.0,3.0,28,0.00,,---,0.00,VWS V14.01,2013-01-23 18:38:00,
2013-01-23 13:43:00,41.3,11.5,30.23,NNW,336,2.0,2.0,29,0.00,,---,0.00,VWS V14.01,2013-01-23 18:43:00,
2013-01-23 13:48:00,41.3,10.7,30.21,SE,133,0.0,2.0,28,0.00,,---,0.00,VWS V14.01,2013-01-23 18:48:00,
2013-01-23 13:53:00,41.3,9.9,30.21,South,186,0.0,0.0,27,0.00,,---,0.00,VWS V14.01,2013-01-23 18:53:00,
2013-01-23 13:58:00,41.6,11.7,30.21,ESE,117,3.0,3.0,29,0.00,,---,0.00,VWS V14.01,2013-01-23 18:58:00,
2013-01-23 14:03:00,41.9,11.2,30.21,SW,220,0.0,0.0,28,0.00,,---,0.00,VWS V14.01,2013-01-23 19:03:00,
2013-01-23 14:08:00,42.2,10.6,30.21,WNW,288,1.0,5.0,27,0.00,,---,0.00,VWS V14.01,2013-01-23 19:08:00,
2013-01-23 14:13:00,42.3,11.5,30.21,WNW,288,0.0,0.0,28,0.00,,---,0.00,VWS V14.01,2013-01-23 19:13:00,
2013-01-23 14:18:00,42.8,12.0,30.20,WNW,302,0.0,2.0,28,0.00,,---,0.00,VWS V14.01,2013-01-23 19:18:00,
2013-01-23 14:23:00,43.3,11.6,30.20,NNW,336,2.0,2.0,27,0.00,,---,0.00,VWS V14.01,2013-01-23 19:23:00,
2013-01-23 14:28:00,43.9,13.7,30.20,West,278,0.0,3.0,29,0.00,,---,0.00,VWS V14.01,2013-01-23 19:28:00,
2013-01-23 14:33:00,44.2,12.4,30.20,NW,313,0.0,2.0,27,0.00,,---,0.00,VWS V14.01,2013-01-23 19:33:00,
2013-01-23 14:38:00,44.2,13.2,30.20,NW,326,0.0,2.0,28,0.00,,---,0.00,VWS V14.01,2013-01-23 19:38:00,
2013-01-23 14:43:00,44.3,13.3,30.20,NW,326,2.0,3.0,28,0.00,,---,0.00,VWS V14.01,2013-01-23 19:43:00,
2013-01-23 14:48:00,44.2,13.2,30.19,NW,313,0.0,5.0,28,0.00,,---,0.00,VWS V14.01,2013-01-23 19:48:00,
2013-01-23 14:53:00,44.3,12.4,30.19,SW,223,0.0,0.0,27,0.00,,---,0.00,VWS V14.01,2013-01-23 19:53:00,
2013-01-23 14:58:00,44.6,13.5,30.19,WNW,296,0.0,4.0,28,0.00,,---,0.00,VWS V14.01,2013-01-23 19:58:00,
2013-01-23 15:03:00,45.1,14.0,30.19,SSW,205,2.0,3.0,28,0.00,,---,0.00,VWS V14.01,2013-01-23 20:03:00,
2013-01-23 15:08:00,45.2,12.4,30.19,SW,230,0.0,3.0,26,0.00,,---,0.00,VWS V14.01,2013-01-23 20:08:00,
2013-01-23 15:13:00,45.4,14.2,30.19,NNW,342,2.0,2.0,28,0.00,,---,0.00,VWS V14.01,2013-01-23 20:13:00,
2013-01-23 15:18:00,45.4,14.2,30.19,NNW,342,0.0,3.0,28,0.00,,---,0.00,VWS V14.01,2013-01-23 20:18:00,
2013-01-23 15:23:00,45.2,14.1,30.19,NNW,337,0.0,0.0,28,0.00,,---,0.00,VWS V14.01,2013-01-23 20:23:00,
2013-01-23 15:28:00,45.1,14.0,30.19,South,189,0.0,3.0,28,0.00,,---,0.00,VWS V14.01,2013-01-23 20:28:00,
2013-01-23 15:33:00,45.4,13.4,30.19,SW,236,0.0,1.0,27,0.00,,---,0.00,VWS V14.01,2013-01-23 20:33:00,
2013-01-23 15:38:00,45.7,13.6,30.19,SSW,206,1.0,3.0,27,0.00,,---,0.00,VWS V14.01,2013-01-23 20:38:00,
2013-01-23 15:43:00,45.7,13.6,30.19,SSW,199,0.0,0.0,27,0.00,,---,0.00,VWS V14.01,2013-01-23 20:43:00,
2013-01-23 15:48:00,45.4,15.0,30.19,NW,320,0.0,5.0,29,0.00,,---,0.00,VWS V14.01,2013-01-23 20:48:00,
2013-01-23 15:53:00,44.9,14.6,30.19,SW,220,1.0,3.0,29,0.00,,---,0.00,VWS V14.01,2013-01-23 20:53:00,
2013-01-23 15:58:00,44.6,13.5,30.19,WNW,284,0.0,3.0,28,0.00,,---,0.00,VWS V14.01,2013-01-23 20:58:00,
2013-01-23 16:03:00,44.2,14.0,30.18,NNW,342,0.0,1.0,29,0.00,,---,0.00,VWS V14.01,2013-01-23 21:03:00,
2013-01-23 16:08:00,43.9,13.7,30.18,North,0,0.0,1.0,29,0.00,,---,0.00,VWS V14.01,2013-01-23 21:08:00,
2013-01-23 16:13:00,43.8,14.4,30.18,North,0,0.0,0.0,30,0.00,,---,0.00,VWS V14.01,2013-01-23 21:13:00,
2013-01-23 16:18:00,43.6,15.0,30.18,North,0,0.0,0.0,31,0.00,,---,0.00,VWS V14.01,2013-01-23 21:18:00,
2013-01-23 16:23:00,43.3,13.2,30.18,South,172,2.0,2.0,29,0.00,,---,0.00,VWS V14.01,2013-01-23 21:23:00,
2013-01-23 16:28:00,43.2,13.9,30.18,WSW,251,0.0,5.0,30,0.00,,---,0.00,VWS V14.01,2013-01-23 21:28:00,
2013-01-23 16:33:00,43.1,13.8,30.18,WNW,291,0.0,0.0,30,0.00,,---,0.00,VWS V14.01,2013-01-23 21:33:00,
2013-01-23 16:38:00,43.1,15.3,30.18,WSW,239,0.0,1.0,32,0.00,,---,0.00,VWS V14.01,2013-01-23 21:38:00,
2013-01-23 16:43:00,42.9,13.6,30.18,ESE,109,0.0,0.0,30,0.00,,---,0.00,VWS V14.01,2013-01-23 21:43:00,
2013-01-23 16:48:00,42.9,16.5,30.17,ESE,109,0.0,0.0,34,0.00,,---,0.00,VWS V14.01,2013-01-23 21:48:00,
2013-01-23 16:53:00,42.8,16.4,30.17,North,0,0.0,0.0,34,0.00,,---,0.00,VWS V14.01,2013-01-23 21:53:00,
2013-01-23 16:58:00,42.8,17.7,30.17,West,274,1.0,2.0,36,0.00,,---,0.00,VWS V14.01,2013-01-23 21:58:00,
2013-01-23 17:03:00,42.6,14.8,30.17,NW,304,0.0,0.0,32,0.00,,---,0.00,VWS V14.01,2013-01-23 22:03:00,
2013-01-23 17:08:00,42.6,20.6,30.17,NW,304,0.0,0.0,41,0.00,,---,0.00,VWS V14.01,2013-01-23 22:08:00,
2013-01-23 17:13:00,43.1,19.8,30.17,NW,304,0.0,0.0,39,0.00,,---,0.00,VWS V14.01,2013-01-23 22:13:00,
2013-01-23 17:18:00,43.3,16.8,30.17,NW,304,0.0,0.0,34,0.00,,---,0.00,VWS V14.01,2013-01-23 22:18:00,
2013-01-23 17:23:00,43.5,18.3,30.17,NW,304,0.0,0.0,36,0.00,,---,0.00,VWS V14.01,2013-01-23 22:23:00,
2013-01-23 17:28:00,43.5,18.3,30.17,NW,304,0.0,0.0,36,0.00,,---,0.00,VWS V14.01,2013-01-23 22:28:00,
2013-01-23 17:33:00,43.5,18.3,30.17,NW,304,0.0,0.0,36,0.00,,---,0.00,VWS V14.01,2013-01-23 22:33:00,
2013-01-23 17:38:00,43.6,17.8,30.17,NW,304,0.0,0.0,35,0.00,,---,0.00,VWS V14.01,2013-01-23 22:38:00,
2013-01-23 17:43:00,43.9,18.7,30.17,NW,304,0.0,0.0,36,0.00,,---,0.00,VWS V14.01,2013-01-23 22:43:00,
2013-01-23 17:48:00,44.5,20.5,30.17,NW,304,0.0,0.0,38,0.00,,---,0.00,VWS V14.01,2013-01-23 22:48:00,
2013-01-23 17:53:00,44.8,19.5,30.17,NW,304,0.0,0.0,36,0.00,,---,0.00,VWS V14.01,2013-01-23 22:53:00,
2013-01-23 17:58:00,44.6,18.7,30.17,NW,304,0.0,0.0,35,0.00,,---,0.00,VWS V14.01,2013-01-23 22:58:00,
2013-01-23 18:03:00,44.9,19.6,30.17,NW,304,0.0,0.0,36,0.00,,---,0.00,VWS V14.01,2013-01-23 23:03:00,
2013-01-23 18:08:00,44.6,20.6,30.17,NW,304,0.0,0.0,38,0.00,,---,0.00,VWS V14.01,2013-01-23 23:08:00,
2013-01-23 18:13:00,44.5,20.5,30.17,NW,304,0.0,0.0,38,0.00,,---,0.00,VWS V14.01,2013-01-23 23:13:00,
2013-01-23 18:18:00,44.3,20.9,30.17,NW,304,0.0,0.0,39,0.00,,---,0.00,VWS V14.01,2013-01-23 23:18:00,
2013-01-23 18:23:00,44.3,19.0,30.17,NW,305,0.0,0.0,36,0.00,,---,0.00,VWS V14.01,2013-01-23 23:23:00,
2013-01-23 18:28:00,44.3,18.4,30.17,NW,305,0.0,0.0,35,0.00,,---,0.00,VWS V14.01,2013-01-23 23:28:00,
2013-01-23 18:33:00,43.9,18.7,30.17,NW,305,0.0,0.0,36,0.00,,---,0.00,VWS V14.01,2013-01-23 23:33:00,
2013-01-23 18:38:00,43.5,19.6,30.17,NW,305,0.0,0.0,38,0.00,,---,0.00,VWS V14.01,2013-01-23 23:38:00,
2013-01-23 18:43:00,42.9,19.7,30.17,NW,305,0.0,0.0,39,0.00,,---,0.00,VWS V14.01,2013-01-23 23:43:00,
2013-01-23 18:48:00,42.9,20.3,30.16,NW,305,0.0,0.0,40,0.00,,---,0.00,VWS V14.01,2013-01-23 23:48:00,
2013-01-23 18:53:00,41.6,19.1,30.16,NW,305,0.0,0.0,40,0.00,,---,0.00,VWS V14.01,2013-01-23 23:53:00,
2013-01-23 18:58:00,41.1,19.8,30.16,NW,305,0.0,0.0,42,0.00,,---,0.00,VWS V14.01,2013-01-23 23:58:00,
2013-01-23 19:03:00,40.5,20.3,30.16,NW,305,0.0,0.0,44,0.00,,---,0.00,VWS V14.01,2013-01-24 00:03:00,
2013-01-23 19:08:00,39.9,20.8,30.16,NW,305,0.0,0.0,46,0.00,,---,0.00,VWS V14.01,2013-01-24 00:08:00,
2013-01-23 19:13:00,39.2,21.7,30.16,NW,305,0.0,0.0,49,0.00,,---,0.00,VWS V14.01,2013-01-24 00:13:00,
2013-01-23 19:18:00,38.5,21.0,30.15,NW,305,0.0,0.0,49,0.00,,---,0.00,VWS V14.01,2013-01-24 00:18:00,
2013-01-23 19:23:00,37.9,22.3,30.15,NW,305,0.0,0.0,53,0.00,,---,0.00,VWS V14.01,2013-01-24 00:23:00,
2013-01-23 19:28:00,37.6,22.0,30.15,NW,305,0.0,0.0,53,0.00,,---,0.00,VWS V14.01,2013-01-24 00:28:00,
2013-01-23 19:33:00,37.2,22.1,30.15,NW,305,0.0,0.0,54,0.00,,---,0.00,VWS V14.01,2013-01-24 00:33:00,
2013-01-23 19:38:00,36.8,21.7,30.15,NW,305,0.0,0.0,54,0.00,,---,0.00,VWS V14.01,2013-01-24 00:38:00,
2013-01-23 19:43:00,36.2,21.6,30.15,NW,305,0.0,0.0,55,0.00,,---,0.00,VWS V14.01,2013-01-24 00:43:00,
2013-01-23 19:48:00,35.8,21.6,30.14,NW,305,0.0,0.0,56,0.00,,---,0.00,VWS V14.01,2013-01-24 00:48:00,
2013-01-23 19:53:00,35.5,21.8,30.14,NW,305,0.0,0.0,57,0.00,,---,0.00,VWS V14.01,2013-01-24 00:53:00,
2013-01-23 19:58:00,34.9,21.6,30.14,NW,305,0.0,0.0,58,0.00,,---,0.00,VWS V14.01,2013-01-24 00:58:00,
2013-01-23 20:03:00,34.6,21.4,30.13,NW,305,0.0,0.0,58,0.00,,---,0.00,VWS V14.01,2013-01-24 01:03:00,
2013-01-23 20:08:00,34.3,21.5,30.13,NW,305,0.0,0.0,59,0.00,,---,0.00,VWS V14.01,2013-01-24 01:08:00,
2013-01-23 20:13:00,34.3,21.1,30.13,NW,305,0.0,0.0,58,0.00,,---,0.00,VWS V14.01,2013-01-24 01:13:00,
2013-01-23 20:18:00,34.1,21.3,30.12,NW,305,0.0,0.0,59,0.00,,---,0.00,VWS V14.01,2013-01-24 01:18:00,
2013-01-23 20:23:00,34.0,21.6,30.12,NW,305,0.0,0.0,60,0.00,,---,0.00,VWS V14.01,2013-01-24 01:23:00,
2013-01-23 20:28:00,33.8,21.4,30.12,NW,305,0.0,0.0,60,0.00,,---,0.00,VWS V14.01,2013-01-24 01:28:00,
2013-01-23 20:33:00,33.8,21.4,30.12,NW,305,0.0,0.0,60,0.00,,---,0.00,VWS V14.01,2013-01-24 01:33:00,
2013-01-23 20:38:00,33.8,21.8,30.12,NW,305,0.0,0.0,61,0.00,,---,0.00,VWS V14.01,2013-01-24 01:38:00,
2013-01-23 20:43:00,33.8,21.8,30.12,NW,305,0.0,0.0,61,0.00,,---,0.00,VWS V14.01,2013-01-24 01:43:00,
2013-01-23 20:48:00,34.0,22.0,30.12,NW,305,0.0,0.0,61,0.00,,---,0.00,VWS V14.01,2013-01-24 01:48:00,
2013-01-23 20:53:00,34.1,22.1,30.12,SSE,155,0.0,0.0,61,0.00,,---,0.00,VWS V14.01,2013-01-24 01:53:00,
2013-01-23 20:58:00,34.6,20.5,30.12,South,172,0.0,2.0,56,0.00,,---,0.00,VWS V14.01,2013-01-24 01:58:00,
2013-01-23 21:03:00,34.9,21.2,30.12,ENE,64,0.0,0.0,57,0.00,,---,0.00,VWS V14.01,2013-01-24 02:03:00,
2013-01-23 21:08:00,35.2,21.1,30.12,ENE,61,0.0,1.0,56,0.00,,---,0.00,VWS V14.01,2013-01-24 02:08:00,
2013-01-23 21:13:00,35.3,20.8,30.12,WSW,256,0.0,0.0,55,0.00,,---,0.00,VWS V14.01,2013-01-24 02:13:00,
2013-01-23 21:18:00,35.6,21.0,30.11,West,270,0.0,3.0,55,0.00,,---,0.00,VWS V14.01,2013-01-24 02:18:00,
2013-01-23 21:23:00,35.8,21.2,30.11,West,270,0.0,0.0,55,0.00,,---,0.00,VWS V14.01,2013-01-24 02:23:00,
2013-01-23 21:28:00,35.9,21.8,30.11,SSW,205,0.0,2.0,56,0.00,,---,0.00,VWS V14.01,2013-01-24 02:28:00,
2013-01-23 21:33:00,36.0,21.8,30.12,SSW,205,0.0,0.0,56,0.00,,---,0.00,VWS V14.01,2013-01-24 02:33:00,
2013-01-23 21:38:00,36.0,21.8,30.12,SW,215,0.0,1.0,56,0.00,,---,0.00,VWS V14.01,2013-01-24 02:38:00,
2013-01-23 21:43:00,36.2,22.5,30.12,SW,215,0.0,1.0,57,0.00,,---,0.00,VWS V14.01,2013-01-24 02:43:00,
2013-01-23 21:48:00,36.2,22.0,30.11,ESE,102,0.0,1.0,56,0.00,,---,0.00,VWS V14.01,2013-01-24 02:48:00,
2013-01-23 21:53:00,36.2,22.5,30.11,SE,140,0.0,0.0,57,0.00,,---,0.00,VWS V14.01,2013-01-24 02:53:00,
2013-01-23 21:58:00,36.2,22.9,30.11,SE,144,0.0,0.0,58,0.00,,---,0.00,VWS V14.01,2013-01-24 02:58:00,
2013-01-23 22:03:00,36.2,23.3,30.10,SSE,152,0.0,0.0,59,0.00,,---,0.00,VWS V14.01,2013-01-24 03:03:00,
2013-01-23 22:08:00,36.2,23.3,30.10,WSW,240,0.0,0.0,59,0.00,,---,0.00,VWS V14.01,2013-01-24 03:08:00,
2013-01-23 22:13:00,36.2,23.3,30.10,WSW,240,0.0,0.0,59,0.00,,---,0.00,VWS V14.01,2013-01-24 03:13:00,
2013-01-23 22:17:00,36.2,23.7,30.09,WSW,240,0.0,0.0,60,0.00,,---,0.00,VWS V14.01,2013-01-24 03:17:00,
2013-01-23 22:22:00,36.2,23.7,30.09,WSW,240,0.0,0.0,60,0.00,,---,0.00,VWS V14.01,2013-01-24 03:22:00,
2013-01-23 22:27:00,36.0,23.9,30.09,WSW,240,0.0,1.0,61,0.00,,---,0.00,VWS V14.01,2013-01-24 03:27:00,
2013-01-23 22:33:00,36.0,23.9,30.08,SE,137,0.0,0.0,61,0.00,,---,0.00,VWS V14.01,2013-01-24 03:33:00,
2013-01-23 22:38:00,36.0,24.3,30.08,SSE,162,0.0,0.0,62,0.00,,---,0.00,VWS V14.01,2013-01-24 03:38:00,
2013-01-23 22:42:00,36.0,24.3,30.08,SSE,162,0.0,0.0,62,0.00,,---,0.00,VWS V14.01,2013-01-24 03:42:00,
2013-01-23 22:47:00,36.0,24.3,30.08,SSE,165,0.0,2.0,62,0.00,,---,0.00,VWS V14.01,2013-01-24 03:47:00,
2013-01-23 22:53:00,35.9,24.5,30.08,SSE,165,0.0,0.0,63,0.00,,---,0.00,VWS V14.01,2013-01-24 03:53:00,
2013-01-23 22:57:00,35.9,24.9,30.08,SSE,165,0.0,0.0,64,0.00,,---,0.00,VWS V14.01,2013-01-24 03:57:00,
2013-01-23 23:02:00,35.9,25.3,30.07,SSE,165,0.0,0.0,65,0.00,,---,0.00,VWS V14.01,2013-01-24 04:02:00,
2013-01-23 23:07:00,35.8,25.2,30.07,South,185,0.0,3.0,65,0.00,,---,0.00,VWS V14.01,2013-01-24 04:07:00,
2013-01-23 23:12:00,35.8,25.6,30.07,South,185,0.0,0.0,66,0.00,,---,0.00,VWS V14.01,2013-01-24 04:12:00,
2013-01-23 23:17:00,35.8,25.6,30.06,South,185,0.0,2.0,66,0.00,,---,0.00,VWS V14.01,2013-01-24 04:17:00,
2013-01-23 23:22:00,35.8,25.9,30.06,South,185,0.0,0.0,67,0.00,,---,0.00,VWS V14.01,2013-01-24 04:22:00,
2013-01-23 23:28:00,35.8,26.3,30.06,South,185,0.0,1.0,68,0.00,,---,0.00,VWS V14.01,2013-01-24 04:28:00,
2013-01-23 23:32:00,35.8,26.6,30.05,South,185,0.0,0.0,69,0.00,,---,0.00,VWS V14.01,2013-01-24 04:32:00,
2013-01-23 23:37:00,35.8,26.6,30.05,South,175,0.0,1.0,69,0.00,,---,0.00,VWS V14.01,2013-01-24 04:37:00,
2013-01-23 23:42:00,35.8,27.0,30.05,South,175,0.0,0.0,70,0.00,,---,0.00,VWS V14.01,2013-01-24 04:42:00,
2013-01-23 23:47:00,35.8,27.3,30.04,South,175,0.0,3.0,71,0.00,,---,0.00,VWS V14.01,2013-01-24 04:47:00,
2013-01-23 23:52:00,35.8,27.7,30.04,SE,124,0.0,0.0,72,0.00,,---,0.00,VWS V14.01,2013-01-24 04:52:00,
2013-01-23 23:57:00,35.9,27.8,30.04,SSW,205,2.0,3.0,72,0.00,,---,0.00,VWS V14.01,2013-01-24 04:57:00,